Location: Franzen
(48.6167°N, 15.3833°E)
Time: 12:48:13
(UTC+00:00)

Cosmos 2184 Rocket - Pass Details

Date: 22 April 2021
Orbit: 959 x 1002 km, 82.9° (Epoch: 16 May)

Event Time Altitude Azimuth Distance (km) Brightness Sun altitude
Rises 23:06:03 0° 348° (NNW) 3,723 8.2 -28.8°
Reaches altitude 10° 23:08:38 10° 345° (NNW) 2,764 7.2 -28.8°
Maximum altitude 23:14:50 60° 267° (W) 1,118 4.1 -28.7°
Enters shadow 23:14:59 60° 261° (W) 1,119 4.1 -28.7°
